Weather History for EGXG - December, 2012

Change the Weather History Date:

Friday, December 21, 2012

  Actual Average Record
Temperature  
Mean Temperature 42 °F -  
Max Temperature 43 °F - - ()
Min Temperature 40 °F - - ()
Degree Days  
Heating Degree Days 24    
Moisture  
Dew Point 41 °F    
Average Humidity 96    
Maximum Humidity 100    
Minimum Humidity 87    
Precipitation  
Precipitation 0.00 in - - ()
Sea Level Pressure  
Sea Level Pressure 29.75 in    
Wind  
Wind Speed 5 mph ()    
Max Wind Speed 9 mph    
Max Gust Speed -    
Visibility 6.2 miles    
Events Rain    
T = Trace of Precipitation, MM = Missing Value Source: Averaged Metar Reports

Daily Weather History Graph

Daily Weather History Graph

Search for Another Location

Airport or City:

Trip Planner

Search our weather history database for the weather conditions in past years. The results will help you decide how hot, cold, wet, or windy it might be!

Date:

Astronomy

Dec. 21, 2012 Rise Set
Actual Time 8:20 AM GMT 3:45 PM GMT
Civil Twilight 7:37 AM GMT 4:28 PM GMT
Nautical Twilight 6:51 AM GMT 5:14 PM GMT
Astronomical Twilight 6:08 AM GMT 5:58 PM GMT
Moon 12:02 PM GMT (12/21) 1:11 AM GMT (12/21)
Length of Visible Light 8h 51m
Length of Day
7h 24m
Waxing Gibbous, 62% of the Moon is Illuminated
Dec 21
Waxing Gibbous
Dec 28
Full
Jan 5
Last Quarter
Jan 11
New
Jan 18
First Quarter

Hourly Weather History & Observations

Time (GMT) Temp. Windchill Dew Point Humidity Pressure Visibility Wind Dir Wind Speed Gust Speed Precip Events Conditions
12:50 AM 42.8 °F 37.5 °F 42.8 °F 100% 29.56 in 3.7 mi ESE 9.2 mph - N/A Rain Rain
1:50 AM 42.8 °F 38.6 °F 42.8 °F 100% 29.56 in - East 6.9 mph - N/A   Light Drizzle
2:50 AM 42 °F - 42 °F 100% 29.60 in 3 mi East 3.5 mph - - Rain Drizzle
2:50 AM 42.8 °F 41.1 °F 42.8 °F 100% 29.59 in 3.1 mi East 3.5 mph - N/A   Overcast
3:50 AM 42.8 °F - 42.8 °F 100% 29.59 in - North 2.3 mph - N/A   Overcast
4:50 AM 42.8 °F 41.1 °F 41.0 °F 93% 29.59 in - NNW 3.5 mph - N/A   Scattered Clouds
5:50 AM 42 °F - 42 °F 99% 29.62 in 3 mi NW 3.5 mph - -   Mist
5:50 AM 42.8 °F 41.1 °F 42.8 °F 100% 29.62 in - NW 3.5 mph - N/A   Mostly Cloudy
6:50 AM 42.8 °F 41.1 °F 42.8 °F 100% 29.62 in - NNW 3.5 mph - N/A   Overcast
7:50 AM 42.8 °F 41.1 °F 42.8 °F 100% 29.65 in 3.1 mi NNW 3.5 mph - N/A   Overcast
8:50 AM 42 °F - 42 °F 100% 29.69 in 7 mi NNW 5.8 mph - -   Overcast
8:50 AM 42.8 °F 39.3 °F 42.8 °F 100% 29.68 in 6.2 mi NNW 5.8 mph - N/A   Overcast
9:50 AM 42.8 °F 38.6 °F 42.8 °F 100% 29.71 in 6.2 mi North 6.9 mph - N/A   Overcast
10:50 AM 42.8 °F 38.6 °F 42.8 °F 100% 29.74 in 6.2 mi NNW 6.9 mph - N/A   Mostly Cloudy
11:50 AM 42.8 °F 38.0 °F 42.8 °F 100% 29.77 in 6.2 mi NW 8.1 mph - N/A   Overcast
12:50 PM 42.8 °F 37.5 °F 42.8 °F 100% 29.77 in 6.2 mi WNW 9.2 mph - N/A   Mostly Cloudy
1:50 PM 44.6 °F 40.7 °F 42.8 °F 93% 29.77 in 6.2 mi NW 6.9 mph - N/A   Mostly Cloudy
2:50 PM 44 °F - 42 °F 91% 29.82 in 9 mi WNW 5.8 mph - -   Overcast
2:50 PM 44.6 °F 41.4 °F 42.8 °F 93% 29.80 in 6.2 mi WNW 5.8 mph - N/A   Overcast
3:50 PM 42.8 °F 39.3 °F 41.0 °F 93% 29.83 in 6.2 mi NW 5.8 mph - N/A   Mostly Cloudy
4:50 PM 41.0 °F 39.0 °F 41.0 °F 100% 29.83 in 6.2 mi WNW 3.5 mph - N/A   Mostly Cloudy
5:50 PM 41 °F - 39 °F 91% 29.86 in 14 mi West 6.9 mph - -   Scattered Clouds
5:50 PM 41.0 °F 36.4 °F 39.2 °F 93% 29.86 in 6.2 mi West 6.9 mph - N/A   Mostly Cloudy
6:50 PM 41.0 °F 37.1 °F 39.2 °F 93% 29.86 in 6.2 mi West 5.8 mph - N/A   Scattered Clouds
7:50 PM 41.0 °F 38.0 °F 39.2 °F 93% 29.86 in 6.2 mi West 4.6 mph - N/A   Overcast
8:50 PM 42 °F - 40 °F 89% 29.89 in 12 mi West 4.6 mph - -   Overcast
8:50 PM 42.8 °F 40.1 °F 39.2 °F 87% 29.89 in 6.2 mi West 4.6 mph - N/A   Overcast
9:50 PM 41.0 °F - 39.2 °F 93% 29.89 in 6.2 mi WSW 2.3 mph - N/A   Mostly Cloudy
10:50 PM 41.0 °F - 39.2 °F 93% 29.86 in 5.0 mi ESE 2.3 mph - N/A   Overcast
11:50 PM 40 °F - 40 °F 98% 29.88 in 6 mi SSE 2.3 mph - -   Mist
11:50 PM 41.0 °F - 39.2 °F 93% 29.86 in 5.6 mi SSE 2.3 mph - N/A   Overcast